User: anonymous   Login
Location: Klickitat County Star Party
(45.8642°N, 120.6771°W)
Time: 22:48:41
(UTC-08:00)
Language:

BUGSAT 1 - Orbit

View from above orbital plane
View from above orbital plane
View from above satellite
View from above satellite

Ground track
Ground track

The orbit data is extracted from the following two-line orbital elements,

1 40014U 14033E   19316.86010832 -.00000384  00000-0 -28765-4 0  9997
2 40014  98.0318 267.8228 0030583 294.9721  64.8084 14.95341907294499
Epoch (UTC): 12 November 2019 20:38:33
Eccentricity: 0.0030583
inclination: 98.0318°
perigee height: 560 km
apogee height: 602 km
right ascension of ascending node: 267.8228°
argument of perigee: 294.9721°
revolutions per day: 14.95341907
mean anomaly at epoch: 64.8084°
orbit number at epoch: 29449

The dashed part of the orbit path shows where the satellite is in the earth's shadow,  

DLR